User: anonymous   Login
Location: Hope
(40.9110°N, 74.9680°W)
Time: 22:30:32
(UTC-04:00)
Language:

VELOX 1 - Orbit

View from above orbital plane
View from above orbital plane
View from above satellite
View from above satellite

Ground track
Ground track

The orbit data is extracted from the following two-line orbital elements,

1 40057U 14034E   21206.57582054  .00000368  00000-0  58503-4 0  9997
2 40057  98.3320   2.0069 0009561 298.9600  61.0649 14.78215658381178
Epoch (UTC): 25 July 2021 13:49:10
Eccentricity: 0.0009561
inclination: 98.3320°
perigee height: 628 km
apogee height: 641 km
right ascension of ascending node: 2.0069°
argument of perigee: 298.9600°
revolutions per day: 14.78215658
mean anomaly at epoch: 61.0649°
orbit number at epoch: 38117

The dashed part of the orbit path shows where the satellite is in the earth's shadow,  

DLR